Retour au catalogue

SL-8 DEB *

ActifLEO
NORAD 18510·DEBRIS·🇷🇺 Russia

Lancé Jun 1, 1982 depuis Plesetsk Cosmodrome

Loading…

Prochains Passages (prochaines 24 heures)

TLE

FraisSource: Space-Track

Époque: Sep 14, 2026, 19:51 UTC

1 18510U 82051F   26257.82733829  .00001377  00000-0  28415-3 0  9996
2 18510  73.9888 195.1340 0013056 255.0581 135.8694 14.61392355102248

Suivez SL-8 DEB * en temps réel avec AllMySat

Download on the App Store